EW1071 Weather Reports


Display with metric or nautical units.
time (UTC)temp
F
wind
direction
speed
MPH
gust
MPH
rain 1hr
in
rain 24hr
in
rain mn
in
humidity
%
barometer
mb
20260502163054 59 147 0.0 0.0 0.00 0.00 0.00 91 1013.0
20260502161554 59 147 0.0 0.0 0.00 0.00 0.00 91 1012.9
20260502151530 61 147 0.0 5.0 0.00 0.00 0.00 90 1012.6
20260502123014 67 146 0.0 0.0 0.00 0.00 0.00 81 1011.1
20260502121510 67 146 0.0 0.0 0.00 0.00 0.00 80 1011.4
20260502114504 69 142 1.0 10.0 0.00 0.00 0.00 74 1012.3
20260502113127 69 137 0.0 0.0 0.00 0.00 0.00 73 1012.5
20260502110028 68 132 0.0 4.0 0.00 0.00 0.00 75 1012.3
20260502104527 68 132 0.0 0.0 0.00 0.00 0.00 76 1012.7
20260502103023 68 132 0.0 3.0 0.00 0.00 0.00 77 1013.2
20260502101520 67 132 0.0 0.0 0.00 0.00 0.00 79 1013.6
20260502091511 63 132 0.0 0.0 0.00 0.00 0.00 89 1015.3
20260502070112 58 125 0.0 0.0 0.00 0.00 0.00 95 1016.2
20260502064555 57 125 0.0 0.0 0.00 0.00 0.00 95 1016.3
20260502063055 58 125 0.0 6.0 0.00 0.00 0.00 95 1016.1
20260502061555 58 125 0.0 0.0 0.00 0.00 0.00 95 1016.2
20260502060054 57 125 0.0 0.0 0.00 0.00 0.00 95 1016.2
20260502054552 57 125 0.0 0.0 0.00 0.00 0.00 95 1016.2
20260502053055 57 125 0.0 0.0 0.00 0.00 0.00 95 1016.0
20260502051559 57 125 0.0 0.0 0.00 0.00 0.00 95 1015.8
20260502050052 57 125 0.0 1.0 0.00 0.00 0.00 95 1015.7
20260502044546 56 125 0.0 0.0 0.00 0.00 0.00 95 1015.6
20260502043046 56 125 0.0 0.0 0.00 0.00 0.00 95 1015.5
20260502041542 56 125 0.0 0.0 0.00 0.00 0.00 94 1015.3
20260502040041 56 125 0.0 3.0 0.00 0.00 0.00 94 1014.9
20260502034539 56 125 0.0 4.0 0.00 0.00 0.00 94 1014.7
20260502033038 56 125 0.0 0.0 0.00 0.00 0.00 94 1014.6
20260502031538 56 125 0.0 2.0 0.00 0.00 0.00 94 1014.5
20260502030044 56 125 0.0 0.0 0.00 0.00 0.00 94 1014.5
20260502024536 56 125 0.0 0.0 0.00 0.00 0.00 94 1014.2
20260502023037 56 125 0.0 0.0 0.00 0.00 0.00 94 1014.1
20260502021536 57 125 0.0 0.0 0.00 0.00 0.00 94 1014.1
20260502020036 56 125 0.0 0.0 0.00 0.00 0.00 94 1013.9
20260502014536 56 125 0.0 0.0 0.00 0.00 0.00 94 1013.7
20260502013035 56 125 0.0 0.0 0.00 0.00 0.00 94 1013.7
20260502011534 56 125 0.0 0.0 0.00 0.00 0.00 94 1013.5
20260502010035 56 125 0.0 0.0 0.00 0.00 0.00 94 1013.4
20260502004533 56 125 0.0 0.0 0.00 0.00 0.00 94 1013.3
20260502003032 56 125 0.0 0.0 0.00 0.00 0.00 94 1013.3
20260502001541 56 125 0.0 0.0 0.00 0.00 0.00 94 1013.2
20260502000031 56 125 0.0 0.0 0.00 0.00 0.00 94 1013.4
20260501234536 56 125 0.0 0.0 0.00 0.00 0.00 93 1013.4
20260501233029 56 125 0.0 0.0 0.00 0.00 0.00 93 1013.3
20260501231526 56 125 0.0 0.0 0.00 0.00 0.00 93 1013.5
20260501230025 56 125 0.0 0.0 0.00 0.00 0.00 93 1013.7
20260501224528 56 125 0.0 0.0 0.00 0.00 0.00 93 1014.0
20260501223024 56 125 0.0 7.0 0.00 0.00 0.00 93 1014.0
20260501221522 56 125 0.0 8.0 0.00 0.00 0.00 93 1014.0
20260501220021 56 125 0.0 6.0 0.00 0.00 0.00 93 1014.2
20260501214535 57 125 0.0 2.0 0.00 0.00 0.00 93 1014.4
20260501213018 57 125 0.0 0.0 0.00 0.00 0.00 93 1014.7
20260501211515 57 125 0.0 0.0 0.00 0.00 0.00 93 1015.1
20260501210013 57 125 0.0 0.0 0.00 0.00 0.00 93 1015.2
20260501204512 57 125 0.0 0.0 0.00 0.00 0.00 93 1015.3
20260501203014 57 125 0.0 0.0 0.00 0.00 0.00 92 1015.3
20260501201511 58 125 0.0 0.0 0.00 0.00 0.00 92 1015.1
20260501200011 58 125 0.0 0.0 0.00 0.00 0.00 92 1015.2
20260501194513 58 125 0.0 0.0 0.00 0.00 0.00 92 1015.1
20260501193010 58 125 0.0 0.0 0.00 0.00 0.00 92 1015.1
20260501191510 58 125 0.0 0.0 0.00 0.00 0.00 92 1014.9
20260501190021 58 125 0.0 0.0 0.00 0.00 0.00 92 1014.6
20260501184512 59 125 0.0 0.0 0.00 0.00 0.00 92 1014.9
20260501183008 59 125 0.0 0.0 0.00 0.00 0.00 92 1014.8
20260501181518 59 125 0.0 0.0 0.00 0.00 0.00 92 1014.6
20260501180011 59 125 0.0 0.0 0.00 0.00 0.00 91 1014.5
20260501174509 60 125 0.0 0.0 0.00 0.00 0.00 91 1014.4
20260501173010 60 125 0.0 0.0 0.00 0.00 0.00 91 1014.0
20260501171506 59 125 2.0 8.0 0.00 0.00 0.00 92 1013.6
20260501170005 59 126 2.0 11.0 0.00 0.00 0.00 92 1013.4